Vertical_Velocity
0 0 1 -0 -0 0 -1 -1 -1 0 1 1 0 0 0 1 0 -2 -2 -1 -1 0 -0 0 1 0 2 -1 1 -1 -1 -2 -0 1 5 5 5 4 1 2 2 -2 -1 -1 -2
1 0 1 -1 -0 0 0 -0 -1 -0 -0 -0 -0 -0 -0 -0 -0 -0 -1 -0 -1 0 2 -0 1 -2 -2 -1 1 3 2 3 -0 -3 -1 0 1 1 -1 -4 -3 -2 -1 -1 -5
1 0 -0 -2 -0 -0 -0 -1 -1 -1 -0 0 -0 -1 -1 -1 -0 0 -0 -1 -1 -1 -1 -1 -2 -2 -2 0 -1 0 -1 -2 -1 4 1 0 0 -2 -1 1 3 1 -1 -2 -2
1 -0 -0 -1 -2 -0 -0 -1 -1 0 0 -0 -1 -2 -2 -1 -1 -2 -2 0 -1 -2 -0 -2 -1 -2 -0 1 0 -1 2 -0 1 -2 -3 -3 -3 -5 -2 -1 1 2 1 1 -1
0 -1 -1 -1 -2 0 -2 -1 0 0 -0 -1 -0 -0 0 -2 -0 -0 -1 -0 -0 -1 1 -0 -1 1 -0 2 1 2 2 3 1 1 -1 1 1 3 0 1 -1 -3 -1 -3 -3
1 -1 -2 -2 -1 1 -1 -1 -1 -0 -0 -0 -0 1 1 -1 -0 0 -1 0 0 0 -1 0 1 2 -1 -0 0 -1 -1 0 2 -0 -0 3 3 0 3 -4 -2 0 -3 -2 3
2 -1 -2 -1 -0 1 -0 -0 1 1 0 -0 -0 -1 0 -0 0 -1 1 -1 -1 -1 -0 1 -1 -3 0 2 3 -0 -2 0 -0 0 2 -1 2 1 1 3 3 -1 1 -2 1
2 -1 -2 -1 -0 1 0 -0 0 -1 -1 -0 -0 0 -1 -1 0 -2 -2 0 -1 -3 1 0 0 0 0 -0 -1 2 4 7 7 0 4 7 1 5 0 1 -2 -8 -7 3 -2
1 -1 -3 -1 -0 0 0 -1 -1 -1 -1 -1 -0 -0 -1 0 0 0 -1 -2 -1 -1 -1 -1 1 1 1 1 -1 -2 -2 -5 -1 1 1 0 -4 -1 -5 -1 -8 -7 0 3 -0
0 -1 -2 -1 -2 -0 -1 -2 -3 -1 -1 -1 -0 -1 -1 -0 -0 -1 -1 -2 1 3 -0 -4 -2 1 -5 -7 -4 -5 -4 -3 -1 -5 -6 -8 -5 -8 -2 -1 -1 -0 3 3 0
0 -2 -1 -1 -3 -1 -2 -1 -3 -1 -2 -1 -0 0 -2 -0 -0 1 2 -0 -4 -7 2 0 -1 1 5 2 3 3 1 -2 -4 2 3 -2 -1 1 7 -2 -3 1 4 9 3
1 -1 -1 -0 -1 -1 -0 1 -3 -1 -1 -1 -1 -1 -1 -1 -2 -2 -3 -1 -2 -2 -1 -1 -0 1 -2 -2 -2 -2 -3 -3 -3 3 1 -3 1 -1 -1 1 -1 -2 -1 -4 3
3 0 -1 -0 -0 -0 -1 -1 -2 0 -2 -0 -0 -1 -1 -1 -2 -2 -1 -0 -1 -2 -1 -0 -1 -1 0 -2 -7 -1 -0 2 1 0 -1 -0 6 -0 -2 -0 -5 -5 -5 -4 -6
3 -0 1 0 -1 -1 1 -1 -2 2 -1 -1 -3 -1 -0 -1 -3 -1 1 -1 2 -2 -1 -2 -0 -4 -6 -4 -1 0 -2 -1 -2 2 -4 5 -13 -2 -6 -4 -8 -9 3 -1 4
3 -1 0 1 -0 -0 1 -0 -1 1 -2 -2 -1 0 -1 -1 0 -2 -1 -1 -3 -3 -3 -0 -4 -2 -1 3 -3 -7 -1 -3 1 -1 -0 -2 -5 -7 -10 5 9 6 2 -1 -2
2 1 -0 1 -0 -1 1 0 0 -1 -2 -3 -1 -2 -0 -1 -1 -1 0 -1 -2 -2 -3 -1 -1 -1 -3 -6 -5 -3 -3 -0 -1 -2 4 1 -9 -7 -0 -6 -3 6 4 -0 -1
2 1 1 0 0 1 1 1 0 -1 -1 -1 -1 -1 -1 -1 -1 -3 -3 -1 0 1 -1 2 -4 -2 -4 -4 0 -3 2 -2 -3 -4 1 2 -4 4 -4 -3 -9 -10 -4 2 -0
2 1 1 -1 -1 1 0 -1 -0 -0 -0 0 -1 -1 -2 -2 -1 0 -1 -5 -4 -2 1 -2 -4 -4 -4 -2 -2 0 -4 -1 -1 -0 5 0 -0 8 3 -2 -16 0 -5 -5 -1
-0 1 1 1 1 -0 -0 -1 -1 0 0 -0 -0 -2 -1 -1 -1 -2 -2 -0 -1 -3 -3 -4 -5 -5 -5 -5 -1 1 0 0 1 2 -3 2 -7 2 -0 10 13 9 -1 -0 -2
-1 0 1 0 2 -0 -1 0 -1 -1 0 0 -0 -1 -2 -1 -1 1 -1 -1 -1 -1 -4 -3 -4 -4 -5 -0 -2 -1 -2 -6 -9 -7 -6 3 -0 -1 -0 10 -5 1 8 2 0
0 1 -0 1 0 -1 -1 -1 -1 -1 1 0 -1 -1 -1 -2 -1 -1 -1 -1 -1 -3 -2 -2 -4 -3 -3 -2 -2 -3 -3 -3 -1 -4 -7 -11 -1 -3 -10 -12 -10 2 -6 0 -1
-1 -1 0 2 -0 -2 0 0 1 -0 0 -0 -1 -1 -1 -1 -1 -2 -2 -1 -2 -2 -2 -2 -4 -4 -2 -2 -2 -1 -1 -2 -2 -4 1 4 -4 -4 -7 -1 2 1 -1 -2 -4
1 1 0 0 -2 0 -0 -1 -1 -0 0 0 -1 -0 -1 -1 -2 -2 -1 -1 -1 -3 -3 -3 -4 -1 -5 -0 -1 -2 -0 2 3 4 2 2 -7 1 7 1 2 3 -2 -3 1
0 -2 -1 0 -2 0 1 -1 -0 -0 -0 -0 -1 -0 -1 -1 -1 -1 -0 -1 -1 -2 -1 -3 -3 -2 -4 -1 -1 -4 -1 -2 -2 -0 -1 -0 5 4 5 4 5 -1 -2 -2 -1
-0 0 2 1 0 1 0 -1 -0 0 -0 -0 -0 -0 -1 -2 -0 -1 0 -1 -1 -1 -2 -1 -2 -3 -3 -2 -2 -2 -1 -1 -1 -2 -2 1 -8 -3 -3 -3 -6 -12 -2 1 0
1 -1 2 -1 -0 1 -1 0 0 -0 -0 -1 -1 -1 -1 -1 -0 -1 -1 -0 0 -1 -2 -3 -2 -4 -4 -2 -1 -2 -1 -1 -0 -0 -3 -3 1 -5 1 4 -1 4 1 -4 -3
3 1 1 1 -0 1 1 -1 0 1 -0 -1 -0 -1 -1 -1 -1 -0 -1 -0 -0 -1 -0 -2 -1 -3 -3 -2 -2 -1 -3 -2 -1 -3 -2 -4 0 -3 3 6 9 1 -9 -2 0
Height
5903 5902 5900 5899 5898 5897 5897 5897 5897 5897 5897 5898 5897 5898 5898 5897 5897 5897 5896 5896 5895 5895 5894 5894 5893 5891 5890 5889 5887 5884 5881 5879 5878 5877 5875 5871 5866 5861 5855 5850 5845 5840 5834 5826 5819
5904 5902 5900 5899 5898 5897 5897 5898 5898 5898 5898 5898 5898 5897 5897 5897 5897 5897 5897 5896 5896 5896 5895 5894 5892 5889 5888 5887 5885 5884 5880 5877 5875 5872 5870 5867 5861 5856 5851 5845 5839 5832 5823 5815 5808
5904 5902 5901 5900 5899 5898 5898 5898 5898 5898 5898 5898 5898 5898 5898 5898 5898 5898 5897 5896 5896 5895 5894 5893 5891 5890 5888 5886 5884 5882 5880 5877 5873 5869 5864 5859 5854 5849 5844 5838 5833 5825 5817 5809 5800
5905 5903 5902 5901 5899 5899 5898 5899 5899 5899 5899 5899 5899 5899 5899 5899 5900 5898 5897 5897 5896 5895 5894 5892 5891 5889 5886 5883 5882 5880 5877 5873 5869 5865 5861 5855 5849 5842 5836 5830 5824 5816 5806 5797 5789
5906 5904 5903 5902 5901 5900 5899 5900 5900 5900 5900 5900 5900 5900 5900 5899 5899 5898 5898 5897 5897 5895 5894 5892 5890 5888 5885 5882 5879 5876 5873 5869 5865 5861 5855 5848 5843 5837 5831 5823 5815 5805 5794 5786 5776
5906 5905 5904 5903 5902 5901 5900 5901 5901 5901 5901 5900 5900 5900 5900 5900 5899 5899 5898 5897 5896 5895 5893 5891 5889 5886 5882 5879 5876 5872 5869 5864 5861 5855 5849 5843 5837 5830 5823 5814 5805 5794 5782 5772 5760
5906 5906 5905 5904 5903 5902 5901 5901 5902 5901 5901 5901 5900 5900 5901 5901 5900 5899 5898 5897 5896 5894 5892 5890 5887 5884 5881 5876 5871 5866 5863 5860 5856 5851 5845 5837 5830 5822 5813 5805 5795 5781 5771 5759 5745
5907 5906 5906 5904 5904 5903 5902 5902 5903 5902 5902 5901 5901 5901 5901 5901 5900 5899 5898 5897 5895 5893 5891 5888 5885 5882 5877 5872 5867 5861 5857 5854 5848 5840 5834 5827 5818 5812 5804 5798 5785 5773 5763 5748 5733
5907 5907 5907 5905 5905 5905 5904 5904 5904 5904 5904 5903 5902 5902 5902 5901 5900 5900 5899 5897 5895 5893 5890 5888 5884 5880 5874 5869 5863 5856 5849 5842 5837 5833 5827 5819 5813 5806 5799 5790 5778 5766 5751 5736 5718
5907 5908 5908 5907 5907 5907 5906 5905 5905 5905 5905 5904 5904 5904 5902 5902 5901 5901 5899 5898 5896 5894 5891 5887 5883 5877 5872 5866 5860 5853 5846 5839 5834 5828 5822 5815 5809 5801 5795 5784 5770 5754 5738 5719 5704
5907 5909 5910 5909 5910 5909 5909 5909 5909 5908 5906 5906 5905 5904 5904 5904 5903 5902 5901 5899 5897 5894 5891 5887 5882 5877 5872 5865 5858 5851 5844 5836 5829 5824 5820 5814 5806 5796 5788 5775 5760 5742 5724 5706 5695
5907 5909 5911 5911 5911 5911 5911 5911 5910 5911 5909 5908 5907 5906 5906 5905 5905 5903 5902 5901 5898 5894 5890 5887 5881 5876 5869 5862 5854 5847 5840 5832 5825 5822 5815 5808 5800 5791 5780 5765 5747 5730 5713 5697 5688
5907 5909 5911 5912 5912 5913 5913 5913 5911 5911 5912 5911 5910 5909 5908 5907 5906 5904 5903 5900 5897 5893 5889 5884 5879 5873 5866 5858 5849 5843 5837 5832 5825 5818 5810 5802 5796 5784 5769 5751 5735 5719 5701 5690 5683
5906 5908 5910 5912 5914 5913 5914 5914 5913 5913 5913 5914 5912 5911 5909 5908 5906 5904 5902 5900 5896 5892 5888 5883 5877 5871 5863 5856 5849 5841 5835 5828 5821 5814 5806 5797 5791 5776 5759 5744 5728 5711 5695 5687 5683
5904 5906 5909 5911 5913 5914 5915 5914 5915 5915 5914 5915 5912 5911 5909 5909 5907 5904 5901 5898 5894 5891 5887 5882 5875 5868 5862 5856 5848 5840 5832 5824 5818 5811 5802 5793 5779 5768 5754 5740 5726 5709 5691 5684 5678
5901 5904 5907 5910 5911 5913 5914 5914 5915 5916 5914 5913 5912 5911 5910 5908 5906 5904 5901 5898 5894 5889 5884 5879 5873 5867 5861 5852 5844 5835 5828 5822 5815 5806 5797 5785 5774 5763 5748 5733 5717 5699 5686 5681 5676
5899 5902 5905 5908 5911 5911 5913 5914 5915 5914 5914 5914 5912 5911 5909 5908 5906 5903 5900 5897 5894 5890 5884 5879 5872 5866 5857 5849 5842 5834 5828 5820 5812 5801 5791 5779 5769 5756 5739 5721 5705 5691 5680 5674 5670
5896 5899 5902 5905 5908 5910 5912 5914 5913 5913 5912 5912 5911 5910 5908 5907 5905 5903 5900 5896 5893 5888 5883 5876 5871 5863 5855 5848 5840 5831 5822 5813 5805 5798 5790 5777 5763 5752 5734 5716 5697 5681 5675 5671 5666
5892 5896 5899 5902 5905 5908 5910 5911 5911 5911 5911 5910 5909 5908 5907 5906 5904 5901 5898 5895 5891 5886 5881 5874 5867 5859 5851 5843 5835 5826 5819 5811 5804 5793 5783 5773 5761 5749 5730 5715 5699 5682 5673 5670 5667
5887 5892 5895 5899 5902 5904 5907 5908 5909 5909 5908 5908 5907 5906 5905 5903 5902 5899 5896 5893 5889 5884 5878 5873 5866 5857 5850 5842 5834 5825 5817 5807 5798 5788 5779 5771 5758 5747 5733 5714 5696 5680 5672 5668 5666
5883 5888 5892 5895 5898 5901 5903 5904 5905 5906 5906 5906 5905 5904 5903 5901 5899 5896 5894 5891 5887 5882 5877 5870 5865 5858 5849 5842 5834 5825 5815 5806 5797 5788 5775 5763 5757 5741 5722 5704 5688 5672 5666 5663 5662
5877 5883 5888 5891 5895 5897 5899 5901 5902 5903 5903 5903 5902 5902 5900 5899 5897 5894 5891 5888 5884 5880 5875 5869 5862 5856 5849 5841 5832 5823 5815 5805 5794 5785 5775 5763 5752 5736 5716 5700 5683 5669 5665 5663 5660
5872 5877 5882 5887 5890 5892 5895 5897 5898 5899 5900 5900 5900 5899 5898 5896 5895 5892 5889 5886 5882 5878 5873 5867 5861 5854 5847 5841 5831 5822 5813 5804 5795 5784 5772 5761 5749 5735 5717 5699 5681 5670 5668 5664 5662
5866 5872 5877 5881 5884 5888 5890 5893 5895 5896 5897 5897 5897 5896 5895 5893 5892 5889 5887 5884 5880 5876 5871 5865 5859 5853 5846 5838 5830 5821 5812 5802 5793 5784 5772 5761 5749 5736 5720 5701 5685 5675 5669 5665 5662
5860 5866 5872 5876 5879 5883 5886 5889 5891 5893 5894 5894 5894 5893 5892 5891 5889 5887 5884 5881 5878 5874 5869 5864 5858 5852 5845 5838 5830 5821 5812 5803 5793 5784 5772 5760 5746 5734 5719 5703 5688 5676 5672 5669 5665
5854 5861 5865 5870 5874 5878 5882 5885 5887 5888 5890 5890 5891 5890 5889 5888 5886 5884 5881 5879 5875 5871 5867 5862 5856 5850 5844 5837 5830 5821 5812 5802 5793 5782 5771 5758 5747 5734 5717 5701 5686 5680 5676 5672 5667
5847 5854 5859 5864 5868 5873 5877 5880 5883 5885 5886 5887 5887 5887 5886 5885 5883 5881 5879 5876 5873 5869 5864 5860 5855 5849 5843 5837 5829 5822 5812 5802 5792 5782 5771 5759 5748 5735 5720 5705 5693 5682 5676 5671 5668